Theta_e
293 289 285 285 286 287 287 286 287 286 286 286 286 284 283 283 284 287 287 288 287 285 285 285 285 285 286 283 284 284 285 284 285 285 284 285 284 283 282 281 280 280 280 283 284 283 283 283 283 283 284 284 284 285 284 284 283 283 282 282 281 282 282 282 281 280 280 279 280 280 279 279 280 280 280 280 281 281 281 281 281 281 281 281 281 281
294 288 285 286 287 286 285 286 286 287 286 285 284 283 283 283 282 285 286 287 287 283 283 286 284 285 284 282 282 283 283 281 282 283 283 284 283 281 280 280 279 280 282 283 283 283 283 282 282 282 283 284 282 284 284 283 282 283 283 282 282 282 282 281 281 281 281 281 281 280 280 280 280 279 279 279 280 280 280 281 280 280 280 280 280 280
289 284 286 287 285 286 286 286 286 285 285 285 283 283 283 284 284 286 286 287 286 285 283 285 282 284 282 281 281 280 280 280 281 282 283 282 281 280 279 279 280 281 282 282 282 282 283 283 282 282 283 283 284 283 283 283 283 283 283 283 283 283 282 282 282 281 281 281 281 280 280 280 280 281 281 280 281 281 280 280 280 280 280 280 279 280
287 287 287 286 285 286 288 285 285 286 286 285 284 283 281 284 281 279 285 287 286 284 282 283 282 283 282 281 279 280 279 279 280 280 280 281 279 279 279 280 281 281 281 281 282 281 282 283 283 283 283 284 284 284 284 284 284 284 284 284 284 283 283 283 282 282 282 282 282 282 282 281 281 279 281 280 280 280 280 279 280 280 280 280 279 279
285 287 286 285 286 285 286 285 285 284 284 286 284 283 281 281 282 281 282 285 286 284 283 283 283 283 283 281 279 279 280 279 279 279 279 280 280 281 281 282 281 280 280 280 280 281 281 282 282 283 283 284 284 284 284 285 285 284 284 284 284 283 283 282 282 282 282 282 281 281 281 281 280 280 280 279 279 279 279 279 279 279 280 279 279 279
287 286 285 285 284 286 286 286 284 283 283 283 284 283 282 283 281 283 283 282 282 282 282 281 276 279 281 279 277 278 277 276 278 277 278 279 280 281 280 281 282 281 281 281 280 280 281 282 283 283 284 284 284 284 285 286 285 285 284 284 284 283 282 282 282 282 281 280 279 279 278 277 277 276 277 276 276 277 277 277 279 279 279 279 279 279
286 285 284 286 285 287 287 285 283 284 282 282 282 283 283 282 282 282 282 281 278 276 281 283 276 274 283 278 277 276 276 275 277 277 277 278 279 280 280 281 280 280 280 281 281 282 282 282 282 283 284 284 283 284 285 284 285 285 285 284 284 283 283 283 282 282 281 280 280 279 278 277 276 276 277 278 278 277 278 279 278 278 278 279 278 278
289 288 286 286 287 287 285 283 284 283 282 282 284 283 283 282 282 282 281 280 279 283 283 281 280 275 276 279 276 276 275 275 275 276 277 278 279 279 280 280 279 280 280 280 281 282 282 283 282 282 283 283 283 283 284 283 283 283 283 284 283 283 283 282 282 282 281 280 279 279 278 278 277 277 277 277 278 278 278 277 277 277 277 278 278 277
285 286 285 287 286 285 283 284 285 284 282 283 285 285 283 283 282 283 281 280 280 277 278 280 282 276 275 279 278 280 275 273 274 275 277 278 279 279 279 279 279 280 281 281 281 281 281 281 281 281 281 281 282 282 281 281 282 282 283 283 283 282 281 281 281 281 281 280 280 279 279 278 278 278 278 278 278 277 278 277 277 277 277 277 277 277
286 285 286 284 286 283 285 286 285 284 282 286 286 286 285 284 282 281 281 279 278 276 275 277 280 273 274 280 280 280 277 273 273 275 278 278 279 278 278 279 280 281 281 281 281 280 280 280 281 281 281 280 280 281 281 281 281 281 282 282 282 281 281 281 281 281 280 280 280 279 278 277 277 278 277 278 277 277 277 276 276 276 276 276 276 276
284 289 288 287 285 285 285 287 284 285 285 287 285 284 284 283 282 280 279 280 277 274 276 278 278 277 270 275 274 273 272 274 275 277 277 277 277 278 279 279 280 279 280 280 280 280 280 281 280 280 280 280 280 280 280 280 280 280 280 281 279 279 280 280 280 279 279 279 279 278 278 277 277 277 276 276 276 276 276 275 275 275 275 276 275 275
288 288 286 285 288 287 285 285 285 284 285 285 284 282 284 280 281 276 279 278 273 272 277 277 277 277 268 275 273 275 275 275 276 274 275 275 276 277 278 279 279 279 279 279 279 278 279 279 279 279 279 279 279 279 279 279 279 279 279 279 279 279 279 279 279 279 278 278 278 278 278 277 277 276 276 275 275 275 274 274 274 274 274 274 274 274
285 285 283 285 288 284 285 284 286 284 286 285 283 282 277 275 276 273 277 271 272 271 276 279 279 273 274 276 275 275 275 276 277 277 275 275 276 278 278 278 278 278 278 278 277 278 278 278 278 277 277 276 276 276 277 278 278 278 278 278 278 279 279 279 279 279 278 278 278 277 277 276 277 276 276 275 274 275 274 274 274 273 273 273 273 273
285 282 285 285 284 286 285 282 282 282 283 282 280 278 275 271 269 267 271 274 274 277 280 278 279 274 278 276 275 275 277 278 278 278 277 277 277 277 277 278 277 277 277 277 277 277 277 277 277 276 275 275 275 275 276 277 277 277 277 277 277 277 278 278 277 277 277 277 277 277 276 276 276 275 275 274 274 274 274 274 273 273 272 272 272 272
279 281 284 285 283 286 285 283 283 281 282 281 282 280 276 274 269 266 270 267 269 272 275 279 274 272 270 274 276 277 279 279 279 279 279 279 278 278 278 277 277 276 276 276 277 276 277 276 275 274 274 274 274 274 275 276 276 276 276 276 276 275 276 276 276 276 276 276 275 275 275 275 274 274 274 274 274 274 273 273 273 272 272 272 272 272
280 280 285 284 284 285 283 283 283 282 280 281 281 283 278 275 278 271 273 271 270 269 270 274 272 275 274 277 278 278 278 278 279 279 278 277 277 277 276 276 276 275 274 275 276 276 276 275 274 273 273 273 274 275 275 275 275 275 275 275 274 273 273 273 274 274 274 274 273 273 273 273 273 273 273 273 273 273 273 272 272 271 272 272 272 273
281 282 284 285 284 284 283 284 283 284 276 281 282 276 278 282 278 274 276 277 276 274 272 277 275 278 279 275 276 277 277 278 279 278 276 276 276 276 275 275 274 274 274 274 276 276 275 274 273 273 273 273 274 275 274 274 274 274 273 272 272 272 272 272 273 272 272 272 271 271 272 272 272 272 271 271 271 271 272 272 272 272 272 272 273 272
278 280 286 283 282 283 283 283 284 283 283 283 277 279 282 279 280 275 268 271 271 268 271 274 270 271 272 269 274 276 277 277 277 276 275 275 275 274 274 274 273 273 273 275 276 275 274 273 272 272 273 274 274 273 273 273 273 273 273 272 271 271 270 270 270 270 270 270 270 270 271 271 271 271 271 271 271 271 271 271 271 272 271 272 272 272
281 279 284 281 281 283 282 283 282 283 285 282 279 283 277 272 272 277 272 265 264 265 267 271 272 273 273 272 276 275 274 274 275 275 274 274 273 273 274 273 274 273 273 274 273 273 272 272 272 273 273 273 272 273 272 273 273 273 272 272 271 270 270 270 270 270 270 270 270 270 270 270 271 271 271 271 271 271 270 270 271 271 271 271 271 271
283 277 281 280 282 283 283 283 279 280 283 284 285 280 281 279 275 272 272 272 273 266 265 266 270 269 276 275 276 275 275 274 274 273 273 274 273 273 273 273 273 272 273 273 272 272 271 271 272 272 271 271 271 272 272 272 272 271 272 271 270 270 270 269 269 269 269 269 269 269 270 270 271 271 271 270 270 269 269 270 270 270 270 271 271 271
281 282 276 283 283 283 280 282 280 280 278 280 279 276 277 276 278 275 274 271 269 267 267 266 264 269 276 278 277 276 275 275 274 273 273 273 273 274 274 273 272 272 273 273 272 271 271 271 272 272 272 272 271 271 271 270 270 271 271 270 269 268 268 268 268 268 268 269 269 269 269 270 270 270 270 269 269 269 269 270 270 270 270 270 269 270
280 280 277 280 281 282 281 282 281 281 281 279 278 275 276 273 271 269 269 272 268 268 266 264 262 269 277 279 278 277 277 275 275 274 274 274 273 273 274 273 272 272 272 272 271 271 270 270 271 271 272 271 270 269 269 269 269 269 268 268 268 268 267 267 267 267 267 268 269 269 269 269 269 269 269 269 269 269 269 269 269 269 269 268 269 269
282 280 278 277 280 281 281 281 280 281 282 280 280 276 276 275 275 272 266 270 272 271 271 269 265 268 279 279 279 279 277 277 276 276 274 273 273 273 274 273 273 272 272 271 271 270 270 270 270 270 270 270 269 268 268 268 267 267 267 266 266 266 266 267 267 267 268 268 268 268 268 268 268 268 268 268 268 268 268 268 268 268 268 267 267 268
284 279 275 279 283 282 280 280 279 281 280 278 277 277 276 273 273 272 272 271 268 270 268 268 265 270 277 280 280 280 278 277 277 276 274 273 273 273 272 272 272 271 271 271 270 270 270 270 270 269 269 268 268 267 267 266 266 266 266 265 266 265 266 266 267 267 267 268 267 267 267 267 267 267 267 266 267 267 267 267 267 267 266 266 266 266
278 280 277 276 278 279 277 277 277 277 279 279 277 274 274 274 272 271 269 269 267 270 270 267 262 267 278 281 280 279 278 276 276 275 275 272 273 273 272 272 271 271 270 270 269 269 269 269 268 268 268 267 267 267 266 266 265 265 264 265 265 265 266 266 267 267 266 266 266 266 266 266 266 266 266 265 265 265 266 266 266 266 266 266 266 267
279 280 279 274 272 270 271 273 275 277 279 279 276 273 272 272 272 272 270 270 265 270 270 267 267 274 278 279 278 278 276 275 275 275 275 274 273 272 272 271 270 270 269 268 268 268 268 268 268 268 267 266 267 266 265 265 264 264 264 264 265 265 265 266 267 266 265 265 265 265 265 265 265 264 264 264 264 264 265 265 265 265 266 266 266 266
279 278 279 279 277 275 278 279 282 282 280 275 277 275 272 270 270 271 272 270 268 270 267 269 270 271 273 275 275 276 275 273 273 273 272 272 273 272 272 270 270 269 269 268 268 268 268 267 266 265 266 266 266 265 265 264 264 264 264 264 265 265 265 265 265 265 265 265 265 264 264 264 264 263 263 264 264 264 264 264 265 265 265 266 266 266
278 278 279 278 278 279 280 280 281 280 277 278 276 275 272 270 269 269 270 269 273 269 265 272 274 270 271 274 275 274 274 274 273 272 272 272 272 271 270 270 270 269 268 268 268 267 266 266 265 265 265 266 265 265 264 264 263 263 263 263 264 264 265 265 265 264 264 264 263 263 263 263 263 263 263 263 263 264 264 264 265 265 266 266 266 266
279 277 274 272 275 278 279 278 279 278 277 276 276 275 273 273 270 268 269 272 271 267 266 272 273 270 272 274 275 274 274 273 273 272 273 273 272 271 269 268 268 267 267 267 267 266 265 264 264 264 264 264 264 263 263 263 263 263 263 263 264 264 264 265 264 263 263 262 262 262 262 262 262 263 263 263 263 263 263 264 264 265 265 265 265 266
278 278 275 272 274 276 277 278 278 277 276 275 274 275 275 273 272 272 271 273 272 271 273 272 272 272 274 275 274 275 275 274 274 274 273 272 271 270 268 267 267 266 266 266 266 265 264 264 263 263 264 263 263 262 262 262 262 262 262 262 263 263 264 263 262 262 261 261 261 262 262 262 262 262 262 262 262 263 263 264 264 264 264 265 265 265
277 278 275 272 272 276 279 277 276 276 275 273 275 275 274 273 272 273 272 273 273 272 273 273 272 271 276 277 275 276 276 275 274 272 272 272 270 268 267 266 266 266 266 266 265 264 263 263 263 263 263 262 262 262 261 261 261 262 262 262 262 263 263 262 261 261 261 260 261 261 261 261 261 261 261 262 262 263 263 263 263 264 264 264 265 265
277 277 271 272 273 277 276 275 276 275 273 271 272 273 272 272 270 272 271 274 272 270 272 271 270 271 275 276 276 276 274 273 271 271 271 270 270 268 266 265 265 265 265 265 264 263 263 262 262 262 262 262 262 262 261 261 261 261 261 262 262 262 262 261 261 260 260 260 260 260 260 260 261 261 261 261 262 262 262 263 263 263 263 264 264 264
275 276 276 274 273 277 277 275 276 273 271 270 272 274 274 274 275 275 275 275 274 275 271 269 270 275 275 276 274 273 273 272 271 271 270 270 269 267 266 265 265 265 265 264 263 262 262 262 262 262 262 261 261 261 261 261 261 260 261 261 261 261 260 260 260 260 259 260 260 260 260 260 260 260 260 261 261 262 262 262 262 262 263 263 264 264
268 275 275 273 272 274 277 275 276 273 273 275 277 278 276 274 274 273 273 275 276 276 273 275 274 275 275 274 272 272 271 271 271 272 272 270 267 267 266 266 266 265 265 264 263 262 262 262 261 262 262 261 261 262 261 261 260 261 261 261 261 260 259 259 259 259 259 259 259 259 259 260 260 260 260 260 261 261 261 261 261 262 263 263 264 263
273 273 274 270 271 274 274 276 276 274 275 275 277 278 277 277 276 274 275 276 276 276 275 274 274 274 275 275 274 273 273 273 273 272 271 269 268 267 266 266 265 265 264 263 262 262 262 262 261 262 261 261 261 261 261 260 261 261 261 260 259 259 259 259 258 258 258 258 259 259 259 259 259 259 259 260 260 260 260 260 261 261 262 262 262 263
275 275 272 270 273 274 273 273 269 275 276 273 276 276 277 276 275 275 274 276 276 276 275 273 274 275 275 274 274 274 273 272 272 272 270 269 269 267 266 265 265 264 263 263 262 261 262 261 260 261 261 261 261 260 260 260 260 260 259 260 259 258 258 258 258 258 258 258 258 258 259 258 259 259 259 259 260 259 260 260 260 260 261 262 262 263
277 274 274 275 273 271 272 271 273 278 276 274 273 275 275 275 275 273 269 274 276 276 275 273 274 274 274 274 274 273 272 271 269 270 269 269 268 268 267 266 266 264 264 263 262 262 263 262 261 261 261 261 260 260 259 260 260 259 259 258 258 257 257 257 257 257 257 257 257 258 258 258 258 258 258 259 259 258 259 259 260 261 262 261 262 263
279 276 277 275 273 271 271 271 273 273 272 276 276 278 280 278 278 277 273 271 276 275 275 274 273 273 273 273 272 272 271 268 266 267 270 269 269 267 267 267 266 265 264 263 263 262 262 262 261 261 261 260 260 259 259 260 259 258 257 257 257 257 256 256 256 257 257 257 257 258 258 258 258 258 258 258 258 258 259 260 260 261 262 262 262 263
274 275 276 275 273 272 271 269 269 267 274 278 277 277 278 278 276 276 271 269 276 275 276 275 273 274 273 272 271 271 267 263 264 267 269 269 268 268 267 266 266 265 264 263 262 261 261 261 261 261 261 260 259 259 259 259 258 257 256 256 256 256 256 255 256 256 256 257 257 258 258 258 258 258 257 257 258 258 258 259 260 261 262 262 263 263
274 274 275 273 269 271 270 268 271 272 274 277 278 277 278 277 276 273 269 273 274 276 276 275 274 273 273 272 271 269 266 262 263 266 269 269 268 267 266 265 264 264 263 263 262 262 261 261 260 259 259 258 258 259 259 258 257 256 256 255 255 255 255 256 256 257 257 257 257 258 258 258 257 257 257 257 258 258 259 260 260 261 261 262 263 264
273 273 273 274 273 271 270 271 272 275 280 279 278 279 278 277 274 270 269 276 276 276 276 276 275 274 273 272 271 267 269 269 269 269 269 269 267 267 267 266 265 264 262 262 261 262 260 260 260 259 259 259 258 258 258 258 256 255 256 255 254 254 255 256 257 256 256 257 257 257 257 257 257 257 257 258 258 259 259 260 260 261 261 262 263 264
270 268 269 268 271 272 272 270 273 276 280 280 279 279 278 274 271 273 279 278 278 277 277 276 274 274 273 272 271 270 270 270 270 269 268 267 266 266 266 265 264 263 263 263 262 261 260 259 259 259 258 258 258 258 258 257 255 255 254 254 253 254 256 256 256 256 256 256 256 256 256 257 257 257 257 258 258 258 259 260 261 261 262 263 263 264
278 274 276 274 274 272 270 268 271 274 277 279 279 277 276 274 278 281 280 279 279 277 276 276 275 274 273 271 271 270 270 268 268 267 267 266 266 265 264 263 262 261 261 260 260 260 259 258 258 258 258 258 258 257 258 256 254 254 254 253 254 255 256 256 256 256 256 255 255 255 256 256 256 257 257 258 259 259 258 260 260 261 262 263 264 265
277 276 275 275 274 275 271 270 276 282 282 280 280 278 280 281 283 281 279 278 279 277 276 276 275 275 273 271 270 269 268 267 267 267 266 266 265 265 264 263 262 262 261 261 260 260 259 258 258 257 257 257 257 257 257 255 254 254 253 253 255 255 255 255 255 255 255 254 255 255 255 256 256 257 258 258 259 259 259 259 260 261 263 264 265 266
279 280 280 280 276 276 278 281 286 283 281 280 281 282 283 282 281 280 279 278 277 277 277 275 275 274 273 271 269 268 267 267 267 266 265 264 264 263 262 262 261 261 260 260 259 259 259 258 257 256 256 256 256 257 256 255 254 254 252 254 255 254 254 254 254 254 253 254 254 254 255 256 256 257 258 258 258 258 259 259 260 261 263 264 265 266
281 280 279 279 278 280 281 281 283 284 284 283 282 282 281 281 280 279 278 277 278 278 277 275 274 273 272 270 268 267 267 267 266 265 265 264 263 263 263 262 261 261 261 260 259 258 258 258 257 256 255 255 256 256 256 255 255 253 253 254 254 254 254 254 253 253 253 253 254 254 255 255 256 257 258 258 259 259 260 260 260 261 262 264 265 266
279 278 279 278 279 277 277 283 282 283 284 283 282 280 280 280 280 279 278 278 278 278 276 275 274 272 271 269 268 267 267 267 265 265 265 264 263 262 262 261 260 260 259 259 259 258 257 256 255 254 253 253 255 255 255 255 255 255 254 254 254 254 254 253 252 252 252 253 253 254 255 255 256 256 257 258 258 259 260 261 261 261 262 264 264 265
280 279 278 279 278 277 280 283 282 282 282 283 282 280 279 279 279 279 279 279 278 277 276 274 273 271 270 268 268 267 266 266 265 264 263 263 262 261 261 260 260 259 259 259 259 258 256 256 254 253 253 253 254 255 255 254 254 254 254 254 254 254 253 252 252 252 252 253 254 254 255 255 256 256 257 257 258 258 259 260 261 261 262 263 264 264
279 278 278 279 278 280 281 282 282 283 282 282 282 281 281 281 279 278 278 277 277 275 274 273 272 271 270 268 268 267 266 266 265 264 263 262 261 261 260 260 260 259 259 258 257 257 256 255 253 253 253 252 254 254 254 254 254 254 254 254 254 253 252 252 252 252 252 253 254 254 255 255 256 256 256 257 257 258 259 259 260 261 263 265 266 266
278 277 279 278 276 277 279 282 281 279 281 282 280 280 280 280 280 279 278 277 276 275 274 272 271 270 269 268 267 267 265 265 265 263 262 262 261 261 260 260 259 259 258 258 257 257 256 254 254 253 252 253 254 253 253 253 254 254 254 254 253 253 251 251 251 251 252 253 253 254 254 255 255 256 256 256 257 257 258 261 263 264 264 265 267 268
280 282 280 279 279 281 286 285 284 284 283 284 283 281 280 279 279 278 277 277 276 276 274 272 271 270 268 268 268 266 265 265 264 263 262 261 261 261 260 260 258 258 257 257 256 255 254 254 253 253 252 252 253 253 253 253 253 253 253 253 253 252 251 251 251 251 252 253 253 253 254 254 255 255 256 256 257 257 258 259 260 265 266 266 267 268
Wind_Speed
5 9 9 6 6 7 5 3 2 3 3 7 6 8 8 10 14 11 12 5 5 7 6 12 13 11 11 12 12 11 10 12 12 9 6 5 7 8 9 10 10 11 10 6 5 4 3 2 2 2 3 4 5 6 6 6 7 7 7 7 7 6 6 5 5 4 4 4 5 4 5 5 5 5 6 6 6 6 6 8 9 9 8 9 10 10
2 10 7 4 5 5 3 1 1 3 3 3 7 7 9 7 10 19 15 3 2 8 14 13 11 10 9 10 11 11 14 17 13 10 8 8 9 10 12 12 12 9 5 4 4 3 2 1 2 3 4 7 8 7 7 8 8 9 9 9 9 7 7 7 6 6 6 5 4 5 6 5 6 6 6 7 7 7 8 9 9 9 9 11 11 11
9 8 6 4 2 1 1 2 1 2 5 4 5 8 7 10 12 14 6 4 1 10 9 10 13 5 8 10 12 13 13 12 13 12 9 10 11 11 11 12 10 7 8 5 7 6 8 7 7 5 6 7 8 9 9 10 10 11 10 10 9 7 7 7 7 6 6 6 6 6 7 7 7 7 7 8 8 8 8 9 9 10 10 11 10 11
7 7 5 2 2 4 2 2 3 5 5 5 7 7 9 12 13 13 7 5 13 7 8 8 12 2 7 11 14 13 13 13 14 15 15 12 13 13 13 10 9 10 10 11 11 11 11 10 10 11 10 10 9 10 10 11 12 10 10 10 10 9 8 8 8 8 8 8 8 8 8 8 8 8 8 8 8 7 8 9 9 9 9 9 10 12
6 3 1 1 1 3 4 1 7 8 8 7 5 5 9 14 14 8 16 17 14 2 4 12 9 5 4 5 8 11 12 14 13 15 15 14 14 12 10 10 10 10 11 10 11 12 11 11 12 12 13 11 11 11 12 12 12 9 12 12 12 10 10 9 9 10 9 8 8 8 7 8 8 7 7 8 7 8 8 9 9 9 9 10 11 11
6 2 2 3 3 1 3 6 7 9 7 8 3 4 7 13 18 18 17 15 10 2 5 14 7 3 6 11 9 7 9 13 12 14 13 12 11 11 11 11 12 11 11 12 13 11 11 12 12 12 13 13 13 13 13 13 13 14 13 13 12 11 10 10 11 11 9 8 9 8 8 8 8 8 8 8 9 9 10 10 9 11 11 11 11 11
3 1 1 3 1 3 6 7 3 6 6 5 3 3 8 13 16 16 15 10 6 8 6 6 4 10 7 6 7 9 12 13 10 12 10 9 9 10 10 11 13 13 13 12 10 11 12 13 14 15 14 15 16 17 17 17 16 16 15 16 16 13 11 11 11 12 11 11 10 11 10 9 9 10 9 9 9 10 10 10 11 11 11 11 12 13
1 2 3 2 2 10 10 11 5 5 5 3 1 4 11 14 13 15 11 3 6 5 9 2 2 7 9 5 8 11 12 11 10 10 10 8 10 11 12 13 11 10 10 10 11 13 14 15 16 18 19 17 17 18 18 17 17 18 17 16 15 14 13 11 11 12 12 12 12 12 12 11 12 12 13 13 11 11 10 11 11 10 10 12 12 13
3 4 5 6 5 8 9 9 7 2 2 6 10 12 16 14 12 13 6 5 4 3 1 4 5 10 7 4 8 4 8 8 9 9 9 9 10 12 14 11 11 11 10 13 16 17 17 18 19 18 17 19 20 19 18 18 17 17 17 16 15 13 10 11 14 14 14 13 13 13 12 12 12 13 12 12 13 12 11 12 11 12 13 12 13 13
1 1 3 1 4 7 6 10 5 1 6 6 13 13 14 9 9 9 3 4 2 2 5 7 12 11 12 10 2 4 7 7 6 6 8 8 11 11 10 12 13 15 16 15 16 17 18 19 18 17 18 19 17 16 17 18 18 18 17 17 13 8 10 12 14 14 15 15 14 14 14 15 14 13 13 13 13 14 14 15 17 16 14 12 13 13
1 1 1 1 5 4 6 8 2 3 5 12 14 12 10 6 3 4 3 2 3 4 5 7 7 9 15 3 1 4 3 3 4 7 8 10 10 10 11 14 16 15 15 15 17 18 19 16 15 17 18 19 19 18 18 18 18 18 16 11 9 11 12 13 14 13 14 13 14 13 14 15 15 15 14 13 14 15 16 16 17 17 17 16 14 13
3 2 2 2 2 3 3 6 3 3 6 9 8 12 10 7 3 3 2 3 5 7 2 1 4 9 10 3 6 5 6 5 4 7 10 12 11 13 16 15 15 16 17 17 17 18 17 16 17 16 17 18 19 20 19 18 19 18 16 16 17 15 15 13 13 13 13 13 13 14 14 14 13 13 12 13 15 15 16 16 17 16 16 14 14 13
4 5 1 1 2 5 7 7 3 2 6 10 12 14 15 11 10 7 9 11 8 7 5 6 18 11 7 3 5 7 5 4 4 5 3 6 11 16 16 18 16 16 17 17 17 17 16 18 17 17 18 20 21 19 20 20 20 19 18 18 17 16 14 13 12 13 14 14 12 10 10 11 11 12 13 13 15 15 14 15 16 18 16 15 14 13
2 2 3 1 1 1 5 7 10 2 10 12 15 12 11 10 7 8 9 6 11 11 2 18 13 9 9 3 5 8 6 3 2 4 3 7 14 15 16 16 16 16 16 17 16 16 17 15 16 18 19 20 20 21 21 20 19 18 20 22 20 17 15 15 15 14 12 10 8 8 9 10 10 12 13 14 14 16 16 16 17 16 14 14 14 14
6 1 2 7 3 4 6 6 4 4 5 8 5 9 3 1 0 6 7 13 12 17 21 11 3 4 11 4 8 7 5 5 2 4 6 12 13 16 16 16 17 15 18 19 17 18 15 16 18 19 21 21 21 22 19 18 19 19 15 16 18 19 17 15 13 11 11 9 9 9 10 11 12 13 14 14 14 16 16 14 14 15 14 14 14 13
1 6 2 3 3 4 8 2 1 1 3 4 0 1 4 5 2 6 8 11 9 11 12 1 2 2 5 4 8 5 4 5 1 9 11 12 12 16 17 17 15 16 19 18 17 15 16 17 19 21 22 21 19 20 18 19 19 18 18 18 16 16 15 14 14 13 12 11 11 12 13 13 13 12 13 12 13 13 13 14 15 15 15 13 12 12
3 1 5 2 4 6 6 0 1 4 4 5 4 7 7 5 6 8 10 11 15 10 8 4 8 9 2 8 8 6 6 3 10 12 11 12 13 15 19 16 13 17 20 19 16 15 16 18 21 21 21 19 19 17 18 20 20 19 16 15 15 16 15 14 13 13 12 11 12 13 13 13 14 14 15 14 15 15 14 14 15 13 13 13 12 12
2 9 6 1 3 3 3 2 5 5 1 1 4 8 2 4 5 3 9 10 9 11 10 3 12 13 13 11 7 4 10 10 11 11 10 13 14 17 16 13 15 19 21 19 16 15 18 20 22 21 20 20 17 17 19 18 17 14 14 14 15 13 14 13 12 12 12 13 13 13 14 14 14 14 14 13 14 14 14 14 12 12 11 12 12 12
2 5 2 2 1 2 1 2 2 4 6 9 3 2 4 3 3 3 3 8 12 13 14 9 10 13 7 9 6 11 8 10 12 11 12 17 19 20 16 13 18 22 19 12 12 14 17 20 20 20 17 17 16 18 18 15 17 15 14 15 13 14 13 13 12 13 12 13 11 11 12 13 13 12 12 13 13 13 13 14 13 13 13 13 13 12
2 2 3 4 1 3 1 2 3 2 5 7 5 5 3 3 1 7 1 5 4 14 15 16 15 12 4 9 8 13 7 9 11 12 14 20 24 22 19 17 20 20 18 15 16 17 18 20 19 17 18 14 15 16 16 18 16 17 16 16 16 16 17 18 18 15 15 15 13 13 12 12 12 12 12 12 14 14 14 13 13 14 13 12 11 10
1 1 4 1 4 3 1 2 3 1 2 1 5 4 1 0 5 6 2 2 2 7 12 18 19 8 9 2 8 10 5 8 8 12 17 19 21 20 19 19 23 21 17 15 17 18 20 19 17 18 14 10 13 14 17 18 19 16 15 18 19 19 19 19 18 16 15 14 13 14 14 13 12 12 12 14 15 14 13 12 10 9 10 11 12 12
1 3 4 10 7 4 3 3 1 2 5 4 3 3 2 7 6 7 6 4 2 1 8 13 17 14 7 3 9 5 6 8 13 15 22 24 22 21 19 20 22 19 18 19 18 19 19 19 19 18 11 14 16 18 23 18 15 17 20 19 18 17 17 18 17 16 16 14 13 14 13 13 12 13 14 15 14 13 11 10 11 12 13 13 14 14
2 1 3 7 7 9 5 5 1 4 8 7 3 3 1 3 2 1 8 5 5 5 7 10 15 15 3 2 3 12 7 12 16 20 23 20 19 19 18 20 19 16 17 18 19 18 19 19 19 16 15 18 19 20 19 16 16 17 18 18 18 18 18 17 16 15 14 14 13 14 14 14 14 14 14 14 13 12 12 13 14 14 14 14 14 14
1 1 3 7 7 1 8 5 6 10 11 7 7 5 2 2 2 1 6 4 6 9 10 11 11 10 3 3 14 19 11 13 18 23 24 22 17 19 21 20 17 16 17 18 18 17 18 17 15 14 17 19 19 19 15 16 18 18 17 18 17 17 18 16 15 14 14 13 14 16 16 15 13 14 14 14 12 14 15 15 15 15 16 16 15 16
2 2 1 7 3 3 5 2 3 3 5 2 2 3 2 4 1 2 2 1 4 7 11 11 15 10 7 13 18 21 17 18 25 23 21 21 18 19 20 18 14 15 17 18 19 19 19 17 17 18 20 21 19 17 15 18 19 18 18 16 16 15 15 15 14 13 14 15 16 15 14 14 13 14 14 15 15 18 18 18 17 16 17 16 15 14
2 2 3 5 7 10 11 11 11 8 8 4 5 5 3 3 2 1 4 1 5 2 7 11 17 19 18 19 23 22 17 23 24 23 21 16 17 19 18 15 14 15 16 19 18 19 19 16 18 21 21 20 16 15 17 18 18 18 17 16 15 15 15 14 12 13 15 15 14 13 14 14 14 16 18 18 18 18 17 16 16 15 14 14 14 14
1 0 2 1 1 6 8 10 12 10 10 7 4 2 2 2 1 2 4 5 9 12 11 14 18 26 28 26 25 24 17 22 25 25 21 20 20 20 16 13 15 17 19 20 19 18 17 20 21 23 21 16 15 15 16 18 20 18 16 17 15 14 14 13 12 14 14 14 14 14 15 16 17 17 17 17 15 15 15 15 14 14 14 14 14 14
1 1 2 4 6 9 12 15 16 11 13 13 10 3 6 5 5 6 5 7 6 9 16 7 16 23 26 23 25 20 22 24 22 22 22 20 19 19 15 15 18 20 21 18 18 20 21 21 21 19 18 15 14 16 16 18 19 18 16 16 15 14 13 12 13 13 13 14 15 16 17 17 17 16 15 15 15 15 15 14 14 14 14 14 14 14
1 1 1 2 7 9 14 16 15 12 10 10 9 7 7 7 8 7 6 9 6 6 15 23 22 24 24 21 19 17 22 25 21 20 19 20 20 17 14 17 20 22 20 18 18 19 21 19 19 19 17 14 16 17 19 18 18 18 16 14 14 14 14 13 13 13 14 15 17 18 16 15 15 14 15 16 15 15 15 15 14 15 14 14 14 13
1 2 1 2 11 11 13 13 9 8 7 6 8 9 7 7 8 9 11 12 12 15 20 22 23 24 22 17 14 20 22 20 18 17 16 18 20 14 14 17 20 20 20 19 19 18 20 20 16 18 15 15 17 18 19 18 18 16 15 15 15 14 13 13 13 15 17 17 18 16 15 16 15 15 15 15 15 15 15 15 15 15 15 15 15 14
1 0 4 1 4 8 6 1 2 4 5 11 10 7 8 7 7 9 10 13 15 17 18 19 22 21 9 8 16 23 21 17 19 19 18 19 17 13 15 17 19 20 19 18 18 18 18 16 16 17 15 16 18 19 18 17 16 15 15 15 15 13 13 14 15 17 17 18 16 15 15 16 15 15 16 15 15 15 16 16 15 15 15 15 15 15
2 2 3 0 5 5 4 1 5 3 3 6 10 8 9 9 8 8 7 8 10 13 17 18 14 13 13 14 20 21 19 19 19 19 19 18 13 12 15 17 18 18 17 17 17 18 17 16 17 17 16 17 19 20 19 17 15 15 15 15 13 13 15 16 17 17 17 15 15 15 16 15 16 16 16 15 15 16 15 15 16 16 15 15 15 14
0 1 2 1 4 4 3 4 12 1 2 2 4 9 13 11 10 11 12 13 12 12 13 12 12 13 14 16 23 21 18 18 17 17 19 16 10 13 15 17 17 16 15 17 17 17 15 15 16 17 15 16 17 16 17 16 15 15 15 14 13 14 16 17 16 16 15 14 15 16 16 16 16 16 16 15 16 15 15 16 16 16 15 16 15 14
1 2 1 1 2 6 7 13 7 1 3 3 2 4 10 8 7 10 12 13 16 10 10 12 14 12 13 18 20 19 17 15 16 18 16 10 10 14 15 16 15 15 15 15 16 16 15 14 15 14 15 17 18 17 16 15 15 14 13 13 14 16 16 16 16 14 14 15 16 17 16 16 16 16 16 16 16 16 16 16 16 15 15 14 14 14
3 2 0 1 1 6 6 11 4 1 2 3 4 6 7 7 8 13 19 17 16 13 13 15 14 13 13 16 15 15 15 14 14 17 12 3 8 11 14 15 14 15 17 16 17 17 15 16 17 15 15 17 16 16 15 14 14 14 13 14 15 15 16 15 15 14 14 15 16 16 17 17 16 16 16 16 16 16 16 16 16 15 14 12 13 13
2 1 3 1 2 3 2 5 6 5 3 3 6 4 6 8 13 15 18 15 13 10 10 12 11 13 14 14 13 11 12 15 16 12 1 2 5 11 14 13 14 15 17 15 17 16 16 16 17 16 16 15 15 16 15 14 14 13 14 14 15 15 15 15 14 14 14 16 16 17 17 17 16 16 16 16 16 16 16 15 15 15 14 13 12 12
2 2 1 2 2 2 2 3 7 13 10 3 2 5 6 4 5 6 10 7 6 6 7 9 13 14 13 13 13 12 12 13 11 1 7 7 9 11 12 12 13 15 15 14 15 15 15 15 16 15 15 15 15 16 15 14 13 14 15 14 15 16 15 14 14 14 15 16 17 17 17 16 16 16 16 16 16 16 15 15 16 14 12 13 13 13
4 2 0 1 0 1 3 7 4 2 2 1 4 3 5 3 3 3 4 11 5 6 6 7 12 14 16 14 14 14 14 10 7 6 4 11 11 13 12 10 12 14 14 14 15 14 14 14 14 15 15 16 15 15 14 14 13 15 14 14 15 15 14 14 14 15 16 16 17 17 16 16 16 16 16 15 15 16 15 15 13 13 12 12 14 14
2 1 2 1 1 0 0 2 3 3 5 2 6 6 6 4 4 4 3 9 3 8 6 6 11 12 12 14 15 15 13 12 11 9 11 15 14 14 14 13 13 14 13 14 15 15 15 14 14 15 16 16 16 15 15 14 14 14 13 14 15 14 14 14 14 15 16 17 17 16 16 15 15 15 15 15 15 15 15 14 14 13 12 12 12 13
1 0 1 2 1 2 1 1 4 3 6 3 7 5 3 6 9 5 7 4 6 6 4 5 9 10 11 10 9 8 6 11 14 13 15 15 13 13 13 15 16 16 15 14 13 13 14 14 15 15 15 15 15 16 15 13 13 14 12 14 14 13 14 14 14 15 16 16 16 15 15 14 15 15 15 16 15 14 14 13 13 13 13 12 11 11
2 2 1 3 1 2 5 4 4 7 6 3 7 6 7 9 6 2 8 10 4 2 3 4 8 8 8 9 6 7 6 7 12 15 15 13 13 12 11 11 12 13 14 14 14 14 12 12 13 14 15 14 15 14 13 11 13 12 12 14 13 14 14 14 15 15 16 15 16 16 16 14 13 15 15 14 14 14 13 12 13 14 13 12 11 11
2 1 1 1 3 3 3 5 5 8 3 5 6 6 8 5 4 10 5 3 4 6 4 4 7 7 6 8 8 8 9 11 12 12 12 12 12 12 12 12 13 14 12 12 13 13 12 12 13 14 15 14 14 14 12 11 13 11 12 13 14 14 14 14 14 15 16 16 16 15 15 15 14 14 13 13 13 13 13 13 12 12 13 11 11 13
2 3 2 2 1 2 2 3 5 5 1 6 11 4 5 3 7 3 6 4 1 6 6 7 5 7 5 8 8 10 11 11 10 10 10 10 10 11 12 12 12 13 14 14 13 12 13 13 14 15 15 13 13 12 11 12 13 11 12 14 15 14 14 14 14 15 16 15 15 15 15 14 15 14 12 12 13 13 14 13 12 12 11 11 13 13
3 2 1 2 5 2 2 2 2 2 3 8 8 5 6 10 5 2 3 8 2 3 5 5 6 5 5 7 9 10 10 11 10 8 9 9 9 10 11 11 11 12 12 11 12 13 14 13 13 13 13 13 12 12 10 11 12 11 13 15 14 13 13 14 14 15 15 14 14 15 14 14 15 14 13 12 13 12 12 12 12 11 9 11 11 10
11 4 2 4 3 5 5 6 5 4 5 9 11 9 8 3 2 4 4 7 6 5 3 5 7 5 4 6 8 10 10 8 9 7 9 9 9 10 11 11 11 11 12 12 12 12 13 13 14 14 14 13 13 11 10 10 12 12 14 14 13 13 13 14 15 15 15 14 14 14 14 14 13 13 12 12 12 12 11 12 11 10 10 10 10 10
1 1 3 1 5 7 14 16 12 10 11 9 9 7 7 4 4 4 6 6 7 5 4 6 5 5 5 4 7 8 8 8 8 8 7 8 8 9 10 10 9 10 10 10 11 11 12 13 13 15 15 13 12 11 9 10 10 12 13 13 12 12 13 14 15 15 15 14 14 14 14 15 14 13 13 13 11 10 10 10 10 9 10 9 9 9
3 4 4 5 0 3 9 3 8 13 9 7 6 4 4 5 7 7 7 8 6 4 5 6 5 5 5 5 7 9 9 8 8 8 7 7 8 9 10 10 9 9 11 11 11 12 12 12 12 13 14 13 12 10 9 11 10 10 11 12 12 12 13 14 15 15 14 14 14 13 13 14 12 13 13 12 11 10 9 9 9 9 9 8 9 9
1 6 5 11 5 7 13 1 6 5 7 5 5 6 7 9 9 9 8 6 5 5 5 5 4 5 4 6 7 8 9 7 7 7 6 6 7 8 9 8 9 9 9 10 11 12 12 11 12 14 14 12 11 9 10 10 10 10 11 11 11 12 13 14 14 14 14 14 13 11 12 12 14 14 11 12 11 10 10 9 8 8 8 9 9 9
3 6 4 5 7 13 15 20 20 14 15 15 11 10 9 6 8 10 9 8 7 6 6 5 6 5 5 6 5 7 9 8 6 6 6 6 7 7 8 8 8 8 9 10 11 11 11 11 12 13 14 13 11 10 10 10 10 10 11 11 11 12 13 13 15 14 14 13 11 11 11 11 11 11 12 12 12 10 9 9 9 9 9 9 7 8
5 8 4 2 7 8 10 7 5 5 8 2 7 10 9 9 9 9 8 8 8 8 7 6 6 6 6 6 6 6 8 8 6 5 6 6 6 7 8 8 7 8 8 9 9 11 11 11 11 13 13 12 11 10 10 10 10 10 10 10 10 11 13 14 13 13 12 11 11 10 11 11 11 11 11 11 12 13 12 11 12 9 8 8 12 16
11 10 8 7 5 8 6 6 7 8 10 9 2 6 8 8 9 9 10 10 9 9 7 6 7 6 7 7 6 7 8 7 7 5 6 6 6 6 6 7 8 7 8 9 10 10 10 11 12 12 13 12 10 10 10 10 9 10 10 10 10 11 12 12 11 11 11 11 10 11 11 11 11 11 11 11 11 11 11 13 13 15 13 11 15 15
Wind_Direction
287 57 37 29 1 353 9 17 345 306 285 287 273 278 282 286 288 303 318 80 10 311 312 313 321 330 345 33 18 8 17 27 25 41 51 97 111 109 108 99 91 82 79 89 87 71 80 63 23 6 352 336 330 326 306 288 270 253 252 257 259 262 263 269 273 272 273 280 279 273 279 289 293 296 297 299 301 308 305 309 309 309 308 312 312 308
249 53 31 4 346 334 336 267 206 243 235 281 298 299 305 266 309 317 307 91 87 17 310 324 335 332 41 38 23 22 29 26 19 25 57 83 91 97 95 88 82 81 91 79 32 17 14 336 332 328 321 313 306 295 285 269 255 250 246 244 255 255 252 257 261 268 268 267 269 282 287 289 294 298 299 302 306 305 308 311 313 312 313 314 312 309
49 49 10 355 334 231 231 185 204 243 297 261 315 315 303 334 317 278 256 115 52 340 308 338 328 15 83 59 43 41 45 42 37 44 57 84 91 91 88 83 79 65 35 16 4 347 347 331 316 299 287 282 277 278 270 266 263 257 252 252 255 259 262 259 262 265 266 267 266 271 279 292 294 290 293 299 301 303 305 308 311 311 311 309 306 306
62 40 16 32 249 273 223 289 249 272 224 346 344 349 341 326 347 328 295 346 329 311 304 324 301 90 125 87 67 50 51 57 58 62 65 72 83 86 84 72 39 21 10 357 350 341 332 317 303 291 280 279 276 273 270 267 263 262 259 259 258 262 261 261 262 265 268 270 272 272 273 282 287 293 298 293 291 295 299 303 306 306 300 301 302 300
78 30 74 216 249 280 333 42 360 351 349 359 358 343 329 331 314 278 302 319 310 113 329 333 318 158 144 113 67 61 64 65 63 70 75 80 85 81 62 35 26 11 354 342 337 326 310 303 297 288 280 275 270 268 272 270 274 264 259 257 255 255 255 257 262 266 270 271 269 267 270 272 277 278 284 292 295 299 304 304 303 298 300 297 291 291
81 78 203 235 230 303 318 12 23 352 342 334 114 356 307 302 301 307 308 324 329 354 94 3 321 7 128 85 80 83 73 67 66 75 80 83 70 45 27 20 10 2 350 339 322 304 294 289 284 275 275 276 274 276 285 284 278 279 272 261 254 246 248 253 259 263 265 270 272 276 280 286 288 291 293 296 300 306 305 304 300 301 294 291 291 288
51 188 264 350 257 240 16 21 82 351 329 321 22 222 288 292 294 300 312 346 339 333 1 18 335 315 312 98 94 91 81 78 71 72 72 55 36 27 16 8 0 347 333 314 297 291 289 287 288 292 297 299 305 309 308 308 300 289 285 284 274 255 254 258 263 270 274 274 274 275 274 276 286 289 288 292 296 297 299 301 302 296 293 293 293 291
349 93 352 211 333 20 8 1 47 17 322 342 64 247 287 284 295 304 314 322 280 298 284 233 227 305 321 84 112 110 92 82 76 65 48 34 20 11 6 355 341 321 303 302 300 295 298 309 315 321 324 324 327 326 324 322 317 311 304 278 274 252 258 270 282 286 281 280 277 278 279 283 290 292 296 300 296 295 296 298 296 294 294 293 291 290
54 334 8 20 24 26 9 328 344 18 315 301 309 309 292 285 296 291 307 299 283 302 306 35 18 308 310 35 144 133 72 77 66 49 35 18 14 5 347 335 313 302 304 314 321 327 329 334 335 334 338 342 339 336 331 329 327 323 314 297 271 263 267 282 290 291 288 279 277 277 277 279 283 287 292 296 298 299 299 297 299 299 296 291 290 290
139 3 2 290 5 22 321 317 15 231 342 321 303 284 262 266 261 275 265 263 294 259 357 24 13 329 302 321 225 83 78 69 79 57 27 14 2 346 329 322 327 330 330 331 334 335 336 335 341 351 345 339 338 337 337 336 333 330 325 312 309 293 276 289 299 301 298 289 278 275 274 278 282 287 291 294 297 300 305 303 306 305 301 298 297 295
10 84 269 322 47 356 314 318 95 208 246 284 273 270 287 186 227 164 216 292 213 349 356 35 359 340 303 6 72 3 11 56 45 7 4 1 348 334 333 336 334 338 336 338 335 333 333 346 353 343 341 340 336 335 334 335 333 334 333 337 329 313 305 300 301 300 297 291 282 274 274 277 281 286 290 291 294 300 304 303 305 306 304 302 298 295
131 184 175 68 273 290 213 294 161 242 255 293 342 336 319 165 200 174 216 189 5 337 109 317 288 303 284 339 84 86 103 101 64 11 358 352 341 340 339 338 340 341 335 334 335 332 340 346 338 340 340 339 334 329 326 324 323 319 314 309 305 302 299 300 299 299 297 292 280 276 275 281 286 289 291 295 299 302 302 302 303 302 303 301 295 295
146 89 336 156 171 5 320 295 167 167 323 1 359 5 12 349 2 336 356 346 347 316 320 323 332 327 282 331 117 141 136 113 65 32 343 315 339 337 339 339 337 335 338 338 334 337 339 335 338 341 339 334 331 326 323 322 321 319 314 308 300 295 292 298 304 302 304 300 290 287 285 289 295 298 301 303 302 304 303 302 298 301 300 297 296 293
98 95 5 142 154 208 324 9 0 20 7 18 21 6 16 359 1 310 324 303 299 296 319 323 308 251 316 117 162 148 149 142 95 14 237 350 343 336 342 337 338 341 344 337 334 334 331 336 340 339 334 331 326 322 321 322 324 328 328 322 323 315 324 320 316 319 324 325 326 319 315 313 312 308 307 305 302 301 300 296 297 295 293 292 290 290
348 54 97 4 19 3 18 45 13 318 2 46 41 26 44 67 247 300 326 326 309 306 315 301 293 327 326 23 162 147 152 173 14 15 348 341 340 343 340 337 337 344 341 330 329 331 334 337 340 336 330 325 322 322 326 331 338 338 340 343 336 335 340 354 9 15 13 7 357 343 331 320 312 307 304 300 299 298 297 297 294 291 288 286 288 288
340 258 63 97 294 343 22 20 271 28 174 102 180 354 26 355 306 248 278 280 289 296 304 55 290 234 290 71 141 162 175 206 311 338 340 344 345 339 338 338 340 341 333 328 326 329 334 338 336 332 327 324 326 329 336 343 339 338 343 352 8 21 18 11 8 5 354 344 336 325 318 311 305 302 301 298 299 297 298 297 294 291 289 286 284 285
282 303 116 64 84 57 23 298 121 300 6 354 335 19 344 315 221 284 279 242 264 272 277 314 303 320 119 158 161 200 232 247 333 337 343 335 338 343 337 337 344 338 332 326 326 330 342 340 333 330 328 329 330 343 350 345 351 0 8 7 3 3 5 358 352 346 342 332 323 316 311 308 307 306 304 302 302 302 301 296 293 291 289 286 285 286
334 295 345 87 156 98 346 39 70 7 311 321 6 360 315 169 173 42 318 317 331 314 302 299 314 317 334 337 174 221 301 323 330 333 333 335 338 339 339 337 337 339 337 331 332 336 334 333 331 330 333 338 348 351 348 354 354 352 346 355 351 351 351 349 342 335 327 322 316 312 309 310 310 308 307 307 307 307 303 297 292 292 290 288 291 289
283 297 153 110 349 155 147 209 146 79 356 72 58 278 328 1 320 335 293 334 330 328 317 313 318 306 301 307 346 332 330 322 328 336 340 339 344 336 338 337 337 338 335 340 344 339 336 333 331 333 338 349 352 351 345 343 345 344 343 342 344 342 340 336 330 323 319 318 315 311 311 313 312 312 312 312 312 309 305 300 296 294 293 291 290 288
234 296 292 124 302 2 161 228 317 54 94 94 129 64 29 288 296 321 271 246 312 303 329 305 327 309 351 326 331 333 320 327 335 336 338 347 338 335 336 337 339 339 337 338 337 335 333 332 331 335 334 348 348 347 343 341 337 330 329 332 337 336 332 329 329 327 323 322 317 316 318 317 317 317 317 315 312 307 302 298 294 293 295 301 308 313
224 248 286 101 230 252 182 4 352 45 355 26 20 40 62 18 197 197 216 221 238 302 310 311 314 297 336 13 332 330 329 341 341 342 339 339 337 335 335 335 339 338 339 336 333 333 333 331 334 332 339 352 343 342 338 332 330 331 342 341 335 332 330 328 327 327 326 324 323 323 322 322 323 320 317 313 309 306 300 306 318 321 317 312 307 306
241 210 272 311 325 354 33 92 100 114 60 85 28 42 2 13 0 340 316 95 20 241 297 311 293 280 331 103 336 325 0 343 351 347 336 336 337 337 336 336 340 339 339 336 335 333 333 334 334 333 335 330 335 334 334 332 334 342 335 329 328 327 326 327 325 326 326 322 322 325 328 328 326 319 314 311 310 306 315 320 313 314 311 308 304 302
319 300 292 300 301 304 87 101 30 99 92 78 41 114 121 132 337 347 317 316 303 269 246 248 277 283 285 151 303 342 356 359 350 340 336 336 335 338 336 334 336 339 338 337 336 336 335 334 336 337 331 331 337 339 336 344 343 336 331 329 327 326 325 325 324 324 324 324 326 332 331 325 319 318 317 318 315 316 318 317 313 310 308 306 304 301
296 221 270 250 262 326 95 104 115 127 135 139 90 97 121 33 130 269 278 328 291 300 309 308 269 286 122 215 328 337 357 356 338 337 334 334 333 337 336 336 341 339 337 338 334 331 334 333 337 337 334 327 329 335 339 341 335 333 330 327 324 325 327 328 328 327 326 332 333 327 322 320 322 323 324 319 317 316 314 312 309 308 304 304 301 298
257 132 245 301 318 185 173 161 174 236 261 16 60 85 73 111 75 175 137 165 271 273 282 307 288 283 302 323 327 333 332 331 336 334 335 332 335 338 339 338 339 335 334 333 333 335 337 332 332 335 332 329 326 330 334 336 335 332 328 325 327 326 330 331 330 333 336 331 325 324 324 327 329 328 327 324 318 311 307 305 304 301 299 298 296 295
254 313 331 10 0 347 344 338 337 329 325 347 117 133 119 130 117 303 290 256 271 257 297 299 290 289 307 315 327 333 336 331 332 333 335 333 336 337 335 336 333 333 334 334 332 333 337 341 333 328 328 326 326 331 332 332 333 332 329 329 331 331 333 331 332 338 333 330 329 331 332 335 330 325 318 312 309 307 307 307 305 304 302 302 298 296
115 360 275 159 288 296 287 284 290 307 307 289 271 151 143 131 188 204 243 247 292 305 282 251 253 292 309 319 329 333 340 334 332 333 335 334 335 336 335 333 333 335 336 335 334 335 331 333 332 333 329 333 338 336 331 331 334 333 332 333 333 333 330 331 336 334 333 335 336 335 331 325 320 317 315 315 315 314 311 309 307 306 305 302 299 297
122 244 209 242 235 254 270 274 283 293 284 283 291 275 164 173 168 176 220 256 301 311 292 240 299 306 304 311 324 330 330 327 329 331 333 333 332 332 334 332 335 335 335 335 336 337 334 332 334 333 335 338 338 334 332 332 333 333 333 333 333 332 330 334 336 337 339 338 331 327 322 320 320 320 319 317 314 312 311 309 308 307 305 303 301 298
40 265 91 117 244 250 262 266 273 277 264 267 268 257 235 184 176 209 234 253 257 229 270 293 302 303 299 309 324 326 326 327 328 328 329 330 330 333 335 334 335 334 330 330 336 338 334 332 336 334 335 338 336 334 334 332 331 333 331 332 333 331 332 338 341 340 336 330 326 323 323 323 322 319 317 316 314 313 312 311 309 308 307 305 302 298
186 255 203 212 285 279 265 262 263 251 259 262 245 245 235 205 224 230 249 251 245 252 269 283 292 296 298 310 324 324 326 325 322 324 326 330 332 338 337 336 331 328 329 331 333 333 334 330 335 335 334 335 333 332 333 332 332 332 333 333 332 330 340 347 338 333 328 326 326 326 325 324 322 319 317 316 316 315 314 313 312 310 307 305 302 300
318 342 78 248 283 289 290 103 170 214 248 273 275 236 225 232 255 248 254 266 266 267 269 285 296 291 299 332 321 324 324 319 320 326 329 330 335 341 337 331 327 326 327 331 330 331 334 336 338 335 334 335 334 334 334 334 335 333 332 333 331 342 346 338 333 328 327 326 328 328 326 324 321 320 318 318 316 316 315 314 312 309 307 305 304 301
343 273 102 24 319 295 130 216 266 249 274 273 277 245 227 226 240 240 235 246 267 275 291 295 291 294 317 328 320 320 319 321 323 327 330 331 337 337 331 327 325 324 328 329 331 332 331 335 339 335 332 333 333 333 334 333 334 333 333 331 340 342 335 331 328 327 328 329 327 327 327 323 321 320 320 319 318 317 315 313 312 310 307 306 304 302
133 273 299 349 301 267 124 303 317 292 224 231 234 224 216 218 241 255 254 257 245 273 293 290 279 300 305 314 318 318 318 320 322 328 326 328 336 335 328 325 324 326 328 330 333 334 332 336 337 334 334 334 333 333 336 334 332 332 332 334 341 336 333 330 329 330 329 329 329 328 326 323 322 321 320 319 318 317 315 313 311 309 308 306 304 301
354 226 313 174 289 280 333 322 315 207 276 328 57 158 171 213 235 273 280 283 283 266 242 253 271 289 297 312 315 312 317 320 324 318 316 324 336 328 325 324 327 330 330 333 336 334 334 338 336 332 333 333 334 334 332 333 332 329 332 333 335 332 331 331 332 331 329 330 330 328 325 324 323 320 319 318 317 316 314 313 310 309 307 304 303 300
180 190 180 135 257 296 332 323 265 323 360 95 133 162 195 219 243 260 279 281 273 265 255 261 272 280 294 308 303 306 306 308 309 302 306 348 327 326 325 327 332 336 335 337 338 337 336 340 335 330 332 334 334 336 334 332 331 329 332 335 333 333 331 333 330 330 330 330 329 326 325 324 323 320 318 318 317 316 313 312 310 308 308 306 303 300
184 225 139 215 255 255 300 13 356 332 108 148 192 196 221 246 252 272 274 247 245 242 244 258 270 292 302 303 306 307 309 308 302 294 196 24 356 340 333 331 338 341 338 339 337 332 335 339 334 331 329 331 332 335 335 331 330 333 333 334 333 332 331 330 330 329 331 330 327 326 325 324 322 319 318 317 317 316 314 312 310 309 307 303 298 294
178 108 200 308 126 318 299 230 239 297 305 148 188 208 202 257 315 337 312 298 200 220 223 266 291 300 305 310 314 316 312 303 291 322 140 21 358 350 337 333 342 342 339 336 333 328 333 334 329 327 326 327 331 334 333 330 333 333 333 333 334 333 331 331 330 332 331 328 326 325 325 323 321 319 317 317 316 315 313 313 312 308 307 303 300 299
205 256 10 282 329 112 320 313 293 263 308 226 174 142 176 236 258 294 265 290 168 185 195 273 295 309 316 322 324 326 318 304 323 3 8 350 355 347 343 339 341 340 337 333 331 329 331 331 329 326 326 327 330 334 331 330 338 332 329 333 334 332 331 331 331 331 330 327 325 324 323 320 319 317 316 316 314 312 311 310 307 305 307 305 306 304
68 330 243 263 257 212 292 290 289 269 263 137 181 180 190 201 157 145 153 267 166 190 221 279 297 309 318 324 325 334 339 335 326 332 348 346 346 344 339 340 339 339 335 332 330 330 330 329 327 329 330 329 330 332 330 330 336 331 327 333 334 331 330 331 331 332 329 325 323 321 319 319 318 315 315 313 310 309 309 310 311 308 307 304 299 296
167 343 202 216 201 219 161 242 278 206 267 168 161 164 189 147 140 181 302 332 159 204 228 272 299 312 318 319 321 322 337 324 318 322 335 336 337 334 339 339 337 335 334 332 329 328 328 328 327 330 332 331 330 332 328 334 337 331 327 333 332 330 330 330 329 328 324 322 320 319 319 318 316 314 313 311 308 308 308 308 309 309 308 304 302 302
176 181 198 248 269 168 191 275 275 270 249 183 173 171 133 129 144 291 313 324 124 219 241 293 297 308 308 307 311 305 289 284 293 306 318 326 326 327 334 336 330 331 328 330 326 329 327 327 329 330 334 330 330 330 328 334 336 331 331 332 329 330 328 328 328 325 324 321 320 319 318 317 316 314 311 308 307 308 307 309 309 308 307 305 306 305
161 162 180 68 219 228 197 220 254 271 273 148 154 152 138 156 302 301 333 99 312 315 304 297 296 299 296 282 286 279 287 294 297 306 314 320 319 323 330 332 332 329 328 327 325 327 326 324 326 329 332 330 331 329 327 334 332 326 332 331 329 327 326 327 327 325 322 322 319 318 317 316 314 312 309 307 306 310 310 308 306 304 305 303 306 307
176 172 230 216 164 140 167 265 292 318 131 176 142 128 182 233 267 328 322 297 275 290 294 291 280 290 281 286 278 281 289 294 297 301 308 311 315 321 328 331 329 325 327 329 326 329 328 323 326 332 333 332 332 329 326 334 329 327 331 330 328 327 327 327 325 325 322 320 317 316 315 314 313 311 308 308 310 310 307 308 311 309 304 310 317 317
157 228 244 235 181 277 236 230 284 294 112 170 173 272 181 226 300 316 264 289 224 242 278 288 276 265 269 278 290 289 286 290 296 304 305 306 314 318 322 326 325 322 322 324 325 326 327 320 321 324 331 333 332 328 329 333 327 328 330 329 328 327 327 326 327 324 321 319 318 317 314 313 313 311 309 309 313 312 308 309 312 311 320 325 324 328
183 207 188 281 161 188 240 233 245 119 153 187 209 239 266 239 195 203 223 252 274 271 226 264 273 269 260 275 283 285 289 285 290 300 303 308 315 320 321 320 323 322 322 322 324 327 327 319 317 323 328 332 330 329 329 331 325 328 330 329 331 327 327 328 327 324 320 318 317 315 313 312 310 309 311 314 315 314 316 316 321 322 329 327 329 331
11 197 51 265 238 272 282 256 269 286 268 234 193 230 251 217 195 192 215 245 237 247 231 257 273 259 260 263 279 283 276 286 294 299 302 306 309 313 313 314 318 322 317 320 322 326 324 318 316 321 324 326 330 328 328 331 327 328 328 331 328 327 327 328 325 322 320 318 316 313 313 312 313 316 318 316 316 316 316 317 319 320 323 328 329 332
195 146 178 238 153 20 276 166 213 240 249 252 233 198 228 222 217 196 220 227 243 219 216 224 241 253 256 258 260 271 280 284 286 293 302 304 308 307 308 313 316 318 322 322 323 328 323 319 318 319 321 321 329 327 327 329 327 326 331 329 328 328 329 326 323 320 318 317 316 315 316 318 319 321 322 323 323 321 322 324 327 321 320 324 330 331
231 166 213 235 212 205 253 257 241 231 239 216 208 219 223 217 211 207 214 221 229 223 215 217 208 239 227 249 256 267 276 279 283 294 300 303 301 300 303 310 314 318 319 318 325 324 319 317 318 318 318 320 323 325 328 327 325 329 331 330 329 329 328 325 324 321 315 313 315 317 320 319 319 320 321 322 322 321 324 324 324 322 322 323 330 329
101 132 237 189 220 252 271 273 270 278 264 247 223 219 233 207 198 205 207 213 211 211 209 195 193 227 228 244 252 260 272 273 274 280 290 296 294 297 300 305 313 317 319 322 323 320 314 317 317 315 317 315 319 323 326 324 323 329 331 331 330 332 329 327 324 318 313 315 318 319 323 322 321 322 321 320 320 318 314 313 314 311 308 314 319 323
132 228 174 100 263 262 249 256 121 318 303 235 194 213 207 204 198 203 198 210 216 222 214 218 217 206 219 232 239 244 259 273 271 271 281 281 284 293 301 303 309 316 316 318 316 313 311 311 314 315 314 313 315 320 321 320 323 327 330 328 329 333 331 328 324 322 320 321 320 323 325 325 323 324 323 323 325 325 321 309 307 304 310 316 325 326
201 208 157 208 198 259 243 203 189 229 259 270 270 183 191 177 187 199 212 218 218 214 206 214 236 227 221 223 218 232 248 261 267 268 272 280 285 287 292 303 309 313 317 316 314 312 306 310 314 313 311 309 311 314 316 318 319 325 325 327 329 332 330 329 326 323 322 323 323 322 322 321 322 323 322 323 324 324 324 326 324 323 323 326 328 329